,,PA_Meas_PMT16A,,PR_Meas_QMR101_102,,RH_Meas_QMH101,,SR_Meas_QMS101,,TA_Meas_QMH101,,GenWind,,GenWind,
time,status,PA,status,PR,status,RH,status,SR,status,TA,status,DirAvg,status,SpdAvg,
2013-03-01, 00:00:04,VALID,917.608,VALID,0,VALID,95.2546,VALID,0,VALID,19.4898,VALID,57,VALID,0,
2013-03-01, 00:01:04,VALID,917.551,VALID,0,VALID,95.3079,VALID,0,VALID,19.4493,VALID,57,VALID,0,
2013-03-01, 00:02:04,VALID,917.543,VALID,0,VALID,95.4223,VALID,0.107441,VALID,19.4688,VALID,48,VALID,0,
2013-03-01, 00:03:04,VALID,917.541,VALID,0,VALID,95.2012,VALID,0.107441,VALID,19.4493,VALID,46,VALID,0,
2013-03-01, 00:04:04,VALID,917.488,VALID,0,VALID,95.1936,VALID,0,VALID,19.4703,VALID,46,VALID,0,
2013-03-01, 00:05:04,VALID,917.508,VALID,0,VALID,95.0106,VALID,0,VALID,19.4688,VALID,46,VALID,0,
2013-03-01, 00:06:04,VALID,917.528,VALID,0,VALID,94.7743,VALID,0,VALID,19.4898,VALID,46,VALID,0,
2013-03-01, 00:07:04,VALID,917.53,VALID,0,VALID,94.7209,VALID,0,VALID,19.5288,VALID,46,VALID,0,
2013-03-01, 00:08:04,VALID,917.514,VALID,0,VALID,94.7133,VALID,0,VALID,19.5678,VALID,46,VALID,0,
2013-03-01, 00:09:04,VALID,917.531,VALID,0,VALID,94.6981,VALID,0,VALID,19.6068,VALID,46,VALID,0,
2013-03-01, 00:10:04,VALID,917.497,VALID,0,VALID,94.7591,VALID,0,VALID,19.6458,VALID,46,VALID,0,
2013-03-01, 00:11:04,VALID,917.516,VALID,0,VALID,94.7438,VALID,0.107441,VALID,19.6638,VALID,46,VALID,0,
2013-03-01, 00:12:04,VALID,917.537,VALID,0,VALID,94.6447,VALID,0,VALID,19.6833,VALID,46,VALID,0,
2013-03-01, 00:13:04,VALID,917.496,VALID,0,VALID,94.6066,VALID,0,VALID,19.7043,VALID,46,VALID,0,
2013-03-01, 00:14:04,VALID,917.523,VALID,0,VALID,94.5151,VALID,0,VALID,19.7028,VALID,46,VALID,0,
2013-03-01, 00:15:04,VALID,917.518,VALID,0,VALID,94.3703,VALID,0.107441,VALID,19.7238,VALID,46,VALID,0,
2013-03-01, 00:16:04,VALID,917.511,VALID,0,VALID,94.0958,VALID,0,VALID,19.7238,VALID,46,VALID,0,
2013-03-01, 00:17:04,VALID,917.484,VALID,0,VALID,93.5088,VALID,0,VALID,19.6848,VALID,46,VALID,0,
2013-03-01, 00:18:04,VALID,917.52,VALID,0,VALID,93.5241,VALID,0,VALID,19.7223,VALID,46,VALID,0,
2013-03-01, 00:19:04,VALID,917.505,VALID,0,VALID,93.5774,VALID,0,VALID,19.7823,VALID,46,VALID,0,
2013-03-01, 00:20:04,VALID,917.52,VALID,0,VALID,93.6003,VALID,0,VALID,19.7823,VALID,47,VALID,0,
2013-03-01, 00:21:04,VALID,917.527,VALID,0,VALID,93.7756,VALID,0.107441,VALID,19.8003,VALID,46,VALID,0,
2013-03-01, 00:22:04,VALID,917.476,VALID,0,VALID,93.5927,VALID,0.107441,VALID,19.7808,VALID,47,VALID,0,
2013-03-01, 00:23:04,VALID,917.474,VALID,0,VALID,93.4478,VALID,0.107441,VALID,19.7808,VALID,46,VALID,0,
2013-03-01, 00:24:04,VALID,917.504,VALID,0,VALID,92.5483,VALID,0,VALID,19.7418,VALID,46,VALID,0,
2013-03-01, 00:25:04,VALID,917.505,VALID,0,VALID,92.5254,VALID,0,VALID,19.8018,VALID,46,VALID,0,
2013-03-01, 00:26:04,VALID,917.522,VALID,0,VALID,92.3119,VALID,0,VALID,19.8018,VALID,46,VALID,0,
2013-03-01, 00:27:04,VALID,917.541,VALID,0,VALID,92.3577,VALID,0,VALID,19.8228,VALID,46,VALID,0,
2013-03-01, 00:28:04,VALID,917.534,VALID,0,VALID,92.2891,VALID,0,VALID,19.7823,VALID,46,VALID,0,
2013-03-01, 00:29:04,VALID,917.515,VALID,0,VALID,92.9066,VALID,0,VALID,19.8213,VALID,46,VALID,0,
2013-03-01, 00:30:04,VALID,917.545,VALID,0,VALID,93.1581,VALID,0,VALID,19.8408,VALID,46,VALID,0,
2013-03-01, 00:31:04,VALID,917.513,VALID,0,VALID,93.2649,VALID,0,VALID,19.8423,VALID,46,VALID,0,
2013-03-01, 00:32:04,VALID,917.521,VALID,0,VALID,93.1734,VALID,0,VALID,19.8033,VALID,46,VALID,0,
2013-03-01, 00:33:04,VALID,917.49,VALID,0,VALID,92.2586,VALID,0,VALID,19.6848,VALID,37,VALID,0,
2013-03-01, 00:34:04,VALID,917.497,VALID,0,VALID,91.5191,VALID,0,VALID,19.7058,VALID,5,VALID,0,
2013-03-01, 00:35:04,VALID,917.47,VALID,0,VALID,90.7873,VALID,0,VALID,19.6848,VALID,7,VALID,0,
2013-03-01, 00:36:04,VALID,917.489,VALID,0,VALID,91.3666,VALID,0,VALID,19.7238,VALID,7,VALID,0,
2013-03-01, 00:37:04,VALID,917.487,VALID,0,VALID,91.359,VALID,0,VALID,19.7448,VALID,11,VALID,0,
2013-03-01, 00:38:04,VALID,917.487,VALID,0,VALID,90.0325,VALID,0,VALID,19.7253,VALID,10,VALID,0,
2013-03-01, 00:39:04,VALID,917.494,VALID,0,VALID,89.2397,VALID,0,VALID,19.7448,VALID,346,VALID,0,
2013-03-01, 00:40:04,VALID,917.493,VALID,0,VALID,89.2397,VALID,0,VALID,19.7838,VALID,346,VALID,0,
2013-03-01, 00:41:04,VALID,917.499,VALID,0,VALID,89.8648,VALID,0,VALID,19.8213,VALID,346,VALID,0,
2013-03-01, 00:42:04,VALID,917.464,VALID,0,VALID,90.4976,VALID,0,VALID,19.8408,VALID,346,VALID,0,
2013-03-01, 00:43:04,VALID,917.472,VALID,0,VALID,88.7899,VALID,0,VALID,19.7823,VALID,346,VALID,0,
2013-03-01, 00:44:04,VALID,917.466,VALID,0,VALID,89.5904,VALID,0,VALID,19.8408,VALID,350,VALID,0,
2013-03-01, 00:45:04,VALID,917.438,VALID,0,VALID,90.3146,VALID,0,VALID,19.8408,VALID,350,VALID,0,
2013-03-01, 00:46:04,VALID,917.434,VALID,0,VALID,89.9106,VALID,0,VALID,19.8228,VALID,350,VALID,0,
2013-03-01, 00:47:04,VALID,917.447,VALID,0,VALID,90.0707,VALID,0,VALID,19.8033,VALID,350,VALID,0,
2013-03-01, 00:48:04,VALID,917.426,VALID,0,VALID,90.5128,VALID,0,VALID,19.7628,VALID,350,VALID,0,
2013-03-01, 00:49:04,VALID,917.41,VALID,0,VALID,89.9868,VALID,0,VALID,19.7238,VALID,350,VALID,0,
2013-03-01, 00:50:04,VALID,917.402,VALID,0,VALID,90.5662,VALID,0,VALID,19.7238,VALID,350,VALID,0,
2013-03-01, 00:51:04,VALID,917.361,VALID,0,VALID,90.7339,VALID,0,VALID,19.7238,VALID,350,VALID,0,
2013-03-01, 00:52:04,VALID,917.366,VALID,0,VALID,90.6882,VALID,0,VALID,19.7043,VALID,350,VALID,0,
2013-03-01, 00:53:04,VALID,917.346,VALID,0,VALID,91.481,VALID,0,VALID,19.7238,VALID,350,VALID,0,
2013-03-01, 00:54:04,VALID,917.356,VALID,0,VALID,92.0223,VALID,0,VALID,19.7628,VALID,350,VALID,0,
2013-03-01, 00:55:04,VALID,917.343,VALID,0,VALID,92.2738,VALID,0,VALID,19.7628,VALID,350,VALID,0,
2013-03-01, 00:56:04,VALID,917.376,VALID,0,VALID,92.1366,VALID,0,VALID,19.7448,VALID,350,VALID,0,
2013-03-01, 00:57:04,VALID,917.38,VALID,0,VALID,92.0909,VALID,0,VALID,19.6848,VALID,350,VALID,0,
2013-03-01, 00:58:04,VALID,917.367,VALID,0,VALID,92.1214,VALID,0,VALID,19.7043,VALID,350,VALID,0,
2013-03-01, 00:59:04,VALID,917.317,VALID,0,VALID,91.237,VALID,0,VALID,19.6668,VALID,11,VALID,0,
2013-03-01, 01:00:04,VALID,917.327,VALID,0,VALID,91.1913,VALID,0,VALID,19.6458,VALID,1,VALID,0,
2013-03-01, 01:01:04,VALID,917.361,VALID,0,VALID,90.3299,VALID,0,VALID,19.5873,VALID,1,VALID,0,
2013-03-01, 01:02:04,VALID,917.296,VALID,0,VALID,90.1469,VALID,0,VALID,19.5873,VALID,1,VALID,0,
2013-03-01, 01:03:04,VALID,917.298,VALID,0,VALID,90.4976,VALID,0,VALID,19.6083,VALID,1,VALID,0,
2013-03-01, 01:04:04,VALID,917.304,VALID,0,VALID,90.8559,VALID,0,VALID,19.6083,VALID,1,VALID,0,
2013-03-01, 01:05:04,VALID,917.301,VALID,0,VALID,91.6182,VALID,0,VALID,19.6068,VALID,1,VALID,0,
2013-03-01, 01:06:04,VALID,917.281,VALID,0,VALID,91.7935,VALID,0,VALID,19.5873,VALID,1,VALID,0,
2013-03-01, 01:07:04,VALID,917.272,VALID,0,VALID,91.7249,VALID,0,VALID,19.5678,VALID,1,VALID,0,
2013-03-01, 01:08:04,VALID,917.237,VALID,0,VALID,92.5178,VALID,0,VALID,19.5873,VALID,1,VALID,0,
2013-03-01, 01:09:04,VALID,917.168,VALID,0,VALID,92.8227,VALID,0,VALID,19.5873,VALID,11,VALID,0,
2013-03-01, 01:10:04,VALID,917.165,VALID,0,VALID,92.5025,VALID,0,VALID,19.5873,VALID,12,VALID,0,
2013-03-01, 01:11:04,VALID,917.135,VALID,0,VALID,92.5635,VALID,0,VALID,19.5678,VALID,12,VALID,0,
2013-03-01, 01:12:04,VALID,917.127,VALID,0,VALID,91.0617,VALID,0,VALID,19.4898,VALID,8,VALID,0,
2013-03-01, 01:13:04,VALID,917.166,VALID,0,VALID,91.6258,VALID,0,VALID,19.5288,VALID,8,VALID,0,
2013-03-01, 01:14:04,VALID,917.131,VALID,0,VALID,91.8393,VALID,0,VALID,19.5303,VALID,5,VALID,0,
2013-03-01, 01:15:04,VALID,917.167,VALID,0,VALID,91.0617,VALID,0,VALID,19.4508,VALID,5,VALID,0,
2013-03-01, 01:16:04,VALID,917.165,VALID,0,VALID,91.359,VALID,0,VALID,19.4718,VALID,5,VALID,0,
2013-03-01, 01:17:04,VALID,917.198,VALID,0,VALID,90.8254,VALID,0,VALID,19.4508,VALID,356,VALID,0,
2013-03-01, 01:18:04,VALID,917.202,VALID,0,VALID,90.7187,VALID,0,VALID,19.4703,VALID,346,VALID,0,
2013-03-01, 01:19:04,VALID,917.176,VALID,0,VALID,90.5586,VALID,0,VALID,19.4898,VALID,348,VALID,0,
2013-03-01, 01:20:04,VALID,917.192,VALID,0,VALID,90.8025,VALID,0,VALID,19.4718,VALID,348,VALID,0,
2013-03-01, 01:21:04,VALID,917.205,VALID,0,VALID,90.9321,VALID,0,VALID,19.4523,VALID,359,VALID,0,
2013-03-01, 01:22:04,VALID,917.188,VALID,0,VALID,91.5801,VALID,0,VALID,19.4327,VALID,6,VALID,0,
2013-03-01, 01:23:04,VALID,917.193,VALID,0,VALID,91.7859,VALID,0,VALID,19.3937,VALID,11,VALID,0,
2013-03-01, 01:24:04,VALID,917.216,VALID,0,VALID,92.2967,VALID,0,VALID,19.3728,VALID,12,VALID,0,
2013-03-01, 01:25:04,VALID,917.216,VALID,0,VALID,92.8608,VALID,0,VALID,19.3728,VALID,345,VALID,0,
2013-03-01, 01:26:04,VALID,917.22,VALID,0,VALID,93.242,VALID,0,VALID,19.3533,VALID,345,VALID,0,
2013-03-01, 01:27:04,VALID,917.227,VALID,0,VALID,93.6003,VALID,0,VALID,19.3547,VALID,345,VALID,0,
2013-03-01, 01:28:04,VALID,917.239,VALID,0,VALID,93.8138,VALID,0,VALID,19.3143,VALID,359,VALID,0,
2013-03-01, 01:29:04,VALID,917.265,VALID,0,VALID,94.1339,VALID,0,VALID,19.3352,VALID,3,VALID,0,
2013-03-01, 01:30:04,VALID,917.275,VALID,0,VALID,94.3703,VALID,0,VALID,19.3352,VALID,2,VALID,0,
2013-03-01, 01:31:04,VALID,917.276,VALID,0,VALID,94.4084,VALID,0,VALID,19.3157,VALID,352,VALID,0,
2013-03-01, 01:32:04,VALID,917.282,VALID,0,VALID,94.4313,VALID,0,VALID,19.2962,VALID,352,VALID,0,
2013-03-01, 01:33:04,VALID,917.256,VALID,0,VALID,94.2254,VALID,0,VALID,19.2948,VALID,358,VALID,0,
2013-03-01, 01:34:04,VALID,917.282,VALID,0,VALID,94.3703,VALID,0,VALID,19.2948,VALID,347,VALID,0,
2013-03-01, 01:35:04,VALID,917.284,VALID,0,VALID,94.0425,VALID,0,VALID,19.2767,VALID,324,VALID,0,
2013-03-01, 01:36:04,VALID,917.274,VALID,0,VALID,93.7528,VALID,0,VALID,19.2962,VALID,324,VALID,0,
2013-03-01, 01:37:04,VALID,917.286,VALID,0,VALID,93.5774,VALID,0,VALID,19.2962,VALID,324,VALID,0,
2013-03-01, 01:38:04,VALID,917.26,VALID,0,VALID,93.6155,VALID,0,VALID,19.3547,VALID,323,VALID,0,
2013-03-01, 01:39:04,VALID,917.269,VALID,0,VALID,93.7147,VALID,0,VALID,19.3742,VALID,323,VALID,0,
2013-03-01, 01:40:04,VALID,917.281,VALID,0,VALID,93.9891,VALID,0,VALID,19.3742,VALID,323,VALID,0,
2013-03-01, 01:41:04,VALID,917.263,VALID,0,VALID,94.2407,VALID,0,VALID,19.3533,VALID,324,VALID,0,
2013-03-01, 01:42:04,VALID,917.274,VALID,0,VALID,94.4694,VALID,0,VALID,19.3533,VALID,324,VALID,0,
2013-03-01, 01:43:04,VALID,917.252,VALID,0,VALID,94.5151,VALID,0,VALID,19.3338,VALID,324,VALID,0,
2013-03-01, 01:44:04,VALID,917.263,VALID,0,VALID,94.5837,VALID,0,VALID,19.3338,VALID,354,VALID,0,
2013-03-01, 01:45:04,VALID,917.24,VALID,0,VALID,94.6752,VALID,0,VALID,19.3533,VALID,354,VALID,0,
2013-03-01, 01:46:04,VALID,917.244,VALID,0,VALID,94.7896,VALID,0,VALID,19.3128,VALID,354,VALID,0,
2013-03-01, 01:47:04,VALID,917.222,VALID,0,VALID,94.8963,VALID,0,VALID,19.3533,VALID,354,VALID,0,
2013-03-01, 01:48:04,VALID,917.219,VALID,0,VALID,94.9878,VALID,0,VALID,19.3518,VALID,354,VALID,0,
2013-03-01, 01:49:04,VALID,917.2,VALID,0,VALID,94.9344,VALID,0,VALID,19.3728,VALID,354,VALID,0,
2013-03-01, 01:50:04,VALID,917.194,VALID,0,VALID,94.942,VALID,0.107441,VALID,19.3728,VALID,354,VALID,0,
2013-03-01, 01:51:04,VALID,917.185,VALID,0,VALID,94.6295,VALID,0,VALID,19.3143,VALID,354,VALID,0,
2013-03-01, 01:52:04,VALID,917.176,VALID,0,VALID,94.5456,VALID,0,VALID,19.3143,VALID,354,VALID,0,
2013-03-01, 01:53:04,VALID,917.158,VALID,0,VALID,94.1873,VALID,0.107441,VALID,19.3338,VALID,15,VALID,0,
2013-03-01, 01:54:04,VALID,917.151,VALID,0,VALID,94.1339,VALID,0,VALID,19.3323,VALID,15,VALID,0,
2013-03-01, 01:55:04,VALID,917.163,VALID,0,VALID,93.9891,VALID,0,VALID,19.3533,VALID,15,VALID,0,
2013-03-01, 01:56:04,VALID,917.166,VALID,0,VALID,93.5851,VALID,0,VALID,19.2948,VALID,355,VALID,0,
2013-03-01, 01:57:04,VALID,917.176,VALID,0,VALID,93.3487,VALID,0,VALID,19.3157,VALID,355,VALID,0,
2013-03-01, 01:58:04,VALID,917.162,VALID,0,VALID,92.777,VALID,0,VALID,19.2948,VALID,9,VALID,0,
2013-03-01, 01:59:04,VALID,917.164,VALID,0,VALID,92.4797,VALID,0,VALID,19.3547,VALID,349,VALID,0,
2013-03-01, 02:00:04,VALID,917.131,VALID,0,VALID,92.0299,VALID,0,VALID,19.3937,VALID,22,VALID,0,
2013-03-01, 02:01:04,VALID,917.104,VALID,0,VALID,91.7021,VALID,0,VALID,19.4327,VALID,17,VALID,0,
2013-03-01, 02:02:04,VALID,917.111,VALID,0,VALID,92.0604,VALID,0,VALID,19.4523,VALID,6,VALID,0,
2013-03-01, 02:03:04,VALID,917.107,VALID,0,VALID,92.0299,VALID,0,VALID,19.4523,VALID,5,VALID,0,
2013-03-01, 02:04:04,VALID,917.088,VALID,0,VALID,92.4263,VALID,0,VALID,19.4327,VALID,15,VALID,0,
2013-03-01, 02:05:04,VALID,917.085,VALID,0,VALID,92.5406,VALID,0,VALID,19.4523,VALID,15,VALID,0,
2013-03-01, 02:06:04,VALID,917.062,VALID,0,VALID,92.472,VALID,0,VALID,19.4523,VALID,15,VALID,0,
2013-03-01, 02:07:04,VALID,917.035,VALID,0,VALID,92.5254,VALID,0,VALID,19.4132,VALID,9,VALID,0,
2013-03-01, 02:08:04,VALID,917.041,VALID,0,VALID,92.3653,VALID,0,VALID,19.3937,VALID,14,VALID,0,
2013-03-01, 02:09:04,VALID,917.022,VALID,0,VALID,92.6093,VALID,0,VALID,19.3937,VALID,21,VALID,0,
2013-03-01, 02:10:04,VALID,916.983,VALID,0,VALID,92.5483,VALID,0,VALID,19.3742,VALID,18,VALID,0,
2013-03-01, 02:11:04,VALID,916.99,VALID,0,VALID,92.5254,VALID,0,VALID,19.3518,VALID,15,VALID,0,
2013-03-01, 02:12:04,VALID,916.98,VALID,0,VALID,92.5102,VALID,0,VALID,19.3533,VALID,16,VALID,0,
2013-03-01, 02:13:04,VALID,916.981,VALID,0,VALID,92.472,VALID,0,VALID,19.3728,VALID,14,VALID,0,
2013-03-01, 02:14:04,VALID,916.973,VALID,0,VALID,92.3043,VALID,0,VALID,19.3728,VALID,5,VALID,0,
2013-03-01, 02:15:04,VALID,916.931,VALID,0,VALID,92.3348,VALID,0,VALID,19.3338,VALID,5,VALID,0,
2013-03-01, 02:16:04,VALID,916.949,VALID,0,VALID,92.6245,VALID,0,VALID,19.3128,VALID,357,VALID,0,
2013-03-01, 02:17:04,VALID,916.915,VALID,0,VALID,92.6245,VALID,0,VALID,19.2948,VALID,1,VALID,0,
2013-03-01, 02:18:04,VALID,916.932,VALID,0,VALID,92.7541,VALID,0,VALID,19.2948,VALID,330,VALID,0,
2013-03-01, 02:19:04,VALID,916.917,VALID,0,VALID,92.8456,VALID,0,VALID,19.2753,VALID,328,VALID,0,
2013-03-01, 02:20:04,VALID,916.901,VALID,0,VALID,92.5559,VALID,0,VALID,19.2558,VALID,3,VALID,0,
2013-03-01, 02:21:04,VALID,916.86,VALID,0,VALID,92.8227,VALID,0,VALID,19.2543,VALID,16,VALID,0,
2013-03-01, 02:22:04,VALID,916.869,VALID,0,VALID,92.7541,VALID,0,VALID,19.2558,VALID,19,VALID,0,
2013-03-01, 02:23:04,VALID,916.872,VALID,0,VALID,92.8075,VALID,0,VALID,19.2753,VALID,340,VALID,0,
2013-03-01, 02:24:04,VALID,916.855,VALID,0,VALID,92.5635,VALID,0,VALID,19.2753,VALID,355,VALID,0,
2013-03-01, 02:25:04,VALID,916.83,VALID,0,VALID,92.533,VALID,0,VALID,19.2543,VALID,356,VALID,0,
2013-03-01, 02:26:04,VALID,916.845,VALID,0,VALID,92.6702,VALID,0,VALID,19.2753,VALID,10,VALID,0,
2013-03-01, 02:27:04,VALID,916.827,VALID,0,VALID,92.3424,VALID,0,VALID,19.2558,VALID,11,VALID,0,
2013-03-01, 02:28:04,VALID,916.789,VALID,0,VALID,92.6016,VALID,0,VALID,19.2948,VALID,18,VALID,0,
2013-03-01, 02:29:04,VALID,916.805,VALID,0,VALID,92.472,VALID,0,VALID,19.2948,VALID,12,VALID,0,
2013-03-01, 02:30:04,VALID,916.777,VALID,0,VALID,92.2738,VALID,0,VALID,19.2948,VALID,12,VALID,0,
2013-03-01, 02:31:04,VALID,916.777,VALID,0,VALID,92.3119,VALID,0,VALID,19.3143,VALID,353,VALID,0,
2013-03-01, 02:32:04,VALID,916.776,VALID,0,VALID,92.1137,VALID,0,VALID,19.3143,VALID,346,VALID,0,
2013-03-01, 02:33:04,VALID,916.799,VALID,0,VALID,92.19,VALID,0,VALID,19.3352,VALID,346,VALID,0,
2013-03-01, 02:34:04,VALID,916.795,VALID,0,VALID,92.1976,VALID,0,VALID,19.3143,VALID,343,VALID,0,
2013-03-01, 02:35:04,VALID,916.792,VALID,0,VALID,92.3653,VALID,0,VALID,19.3143,VALID,343,VALID,0,
2013-03-01, 02:36:04,VALID,916.801,VALID,0,VALID,92.4187,VALID,0,VALID,19.2948,VALID,343,VALID,0,
2013-03-01, 02:37:04,VALID,916.758,VALID,0,VALID,92.5483,VALID,0,VALID,19.2948,VALID,353,VALID,0,
2013-03-01, 02:38:04,VALID,916.74,VALID,0,VALID,93.0895,VALID,0,VALID,19.3143,VALID,22,VALID,0,
2013-03-01, 02:39:04,VALID,916.721,VALID,0,VALID,93.2725,VALID,0,VALID,19.3143,VALID,34,VALID,0,
2013-03-01, 02:40:04,VALID,916.736,VALID,0,VALID,92.8989,VALID,0,VALID,19.2948,VALID,18,VALID,0,
2013-03-01, 02:41:04,VALID,916.705,VALID,0,VALID,92.8532,VALID,0,VALID,19.3172,VALID,13,VALID,0,
2013-03-01, 02:42:04,VALID,916.673,VALID,0,VALID,92.7541,VALID,0,VALID,19.2348,VALID,17,VALID,0,
2013-03-01, 02:43:04,VALID,916.706,VALID,0,VALID,92.5254,VALID,0,VALID,19.2753,VALID,359,VALID,0,
2013-03-01, 02:44:04,VALID,916.674,VALID,0,VALID,92.5635,VALID,0,VALID,19.2738,VALID,360,VALID,0,
2013-03-01, 02:45:04,VALID,916.688,VALID,0,VALID,92.6169,VALID,0,VALID,19.2543,VALID,357,VALID,0,
2013-03-01, 02:46:04,VALID,916.648,VALID,0,VALID,92.8075,VALID,0,VALID,19.2977,VALID,8,VALID,0,
2013-03-01, 02:47:04,VALID,916.677,VALID,0.2,VALID,93.0438,VALID,0.107441,VALID,19.1944,VALID,5,VALID,0,
2013-03-01, 02:48:04,VALID,916.679,VALID,0,VALID,93.3182,VALID,0,VALID,19.2377,VALID,350,VALID,0,
2013-03-01, 02:49:04,VALID,916.65,VALID,0,VALID,93.3335,VALID,0,VALID,19.2168,VALID,337,VALID,0,
2013-03-01, 02:50:04,VALID,916.642,VALID,0,VALID,93.5088,VALID,0,VALID,19.2363,VALID,337,VALID,0,
2013-03-01, 02:51:04,VALID,916.612,VALID,0,VALID,93.6003,VALID,0,VALID,19.2363,VALID,337,VALID,0,
2013-03-01, 02:52:04,VALID,916.611,VALID,0,VALID,93.6537,VALID,0,VALID,19.2377,VALID,337,VALID,0,
2013-03-01, 02:53:04,VALID,916.573,VALID,0,VALID,93.5546,VALID,0,VALID,19.1973,VALID,358,VALID,0,
2013-03-01, 02:54:04,VALID,916.538,VALID,0,VALID,93.6232,VALID,0,VALID,19.1778,VALID,358,VALID,0,
2013-03-01, 02:55:04,VALID,916.535,VALID,0,VALID,93.6384,VALID,0,VALID,19.1583,VALID,360,VALID,0,
2013-03-01, 02:56:04,VALID,916.52,VALID,0,VALID,93.7756,VALID,0,VALID,19.1583,VALID,348,VALID,0,
2013-03-01, 02:57:04,VALID,916.575,VALID,0,VALID,93.768,VALID,0,VALID,19.1583,VALID,327,VALID,0,
2013-03-01, 02:58:04,VALID,916.54,VALID,0,VALID,93.6842,VALID,0,VALID,19.1583,VALID,324,VALID,0,
2013-03-01, 02:59:04,VALID,916.533,VALID,0,VALID,93.6079,VALID,0,VALID,19.1778,VALID,326,VALID,0,
2013-03-01, 03:00:04,VALID,916.495,VALID,0,VALID,93.7528,VALID,0,VALID,19.2168,VALID,10,VALID,0,
2013-03-01, 03:01:04,VALID,916.517,VALID,0,VALID,93.8214,VALID,0,VALID,19.2363,VALID,21,VALID,0,
2013-03-01, 03:02:04,VALID,916.561,VALID,0,VALID,93.9586,VALID,0,VALID,19.2363,VALID,360,VALID,0,
2013-03-01, 03:03:04,VALID,916.61,VALID,0,VALID,93.8214,VALID,0,VALID,19.2363,VALID,319,VALID,0,
2013-03-01, 03:04:04,VALID,916.598,VALID,0,VALID,93.8671,VALID,0,VALID,19.2363,VALID,294,VALID,0,
2013-03-01, 03:05:04,VALID,916.669,VALID,0,VALID,93.8747,VALID,0,VALID,19.2168,VALID,294,VALID,0,
2013-03-01, 03:06:04,VALID,916.678,VALID,0,VALID,94.0958,VALID,0,VALID,19.1763,VALID,294,VALID,0,
2013-03-01, 03:07:04,VALID,916.683,VALID,0,VALID,94.3626,VALID,0,VALID,19.1583,VALID,294,VALID,0,
2013-03-01, 03:08:04,VALID,916.642,VALID,0,VALID,94.6066,VALID,0,VALID,19.1388,VALID,296,VALID,0,
2013-03-01, 03:09:04,VALID,916.649,VALID,0,VALID,94.7896,VALID,0,VALID,19.1193,VALID,337,VALID,0,
2013-03-01, 03:10:04,VALID,916.621,VALID,0,VALID,95.003,VALID,0,VALID,19.0983,VALID,337,VALID,0,
2013-03-01, 03:11:04,VALID,916.596,VALID,0,VALID,95.3308,VALID,0,VALID,19.1207,VALID,15,VALID,0,
2013-03-01, 03:12:04,VALID,916.547,VALID,0,VALID,95.3689,VALID,0,VALID,19.1207,VALID,12,VALID,0,
2013-03-01, 03:13:04,VALID,916.591,VALID,0,VALID,95.59,VALID,0,VALID,19.1207,VALID,12,VALID,0,
2013-03-01, 03:14:04,VALID,916.541,VALID,0,VALID,95.59,VALID,0,VALID,19.1207,VALID,12,VALID,0,
2013-03-01, 03:15:04,VALID,916.529,VALID,0,VALID,95.712,VALID,0,VALID,19.1207,VALID,12,VALID,0,
2013-03-01, 03:16:04,VALID,916.533,VALID,0,VALID,95.6434,VALID,0,VALID,19.1207,VALID,12,VALID,0,
2013-03-01, 03:17:04,VALID,916.508,VALID,0,VALID,95.4223,VALID,0,VALID,19.1012,VALID,8,VALID,0,
2013-03-01, 03:18:04,VALID,916.501,VALID,0,VALID,95.5138,VALID,0,VALID,19.1207,VALID,8,VALID,0,
2013-03-01, 03:19:04,VALID,916.518,VALID,0,VALID,95.2927,VALID,0,VALID,19.0817,VALID,353,VALID,0,
2013-03-01, 03:20:04,VALID,916.498,VALID,0,VALID,95.1707,VALID,0,VALID,19.1207,VALID,3,VALID,0,
2013-03-01, 03:21:04,VALID,916.474,VALID,0,VALID,94.9954,VALID,0,VALID,19.1388,VALID,5,VALID,0,
2013-03-01, 03:22:04,VALID,916.464,VALID,0,VALID,94.8124,VALID,0,VALID,19.1597,VALID,4,VALID,0,
2013-03-01, 03:23:04,VALID,916.443,VALID,0,VALID,94.7133,VALID,0,VALID,19.1792,VALID,321,VALID,0,
2013-03-01, 03:24:04,VALID,916.45,VALID,0,VALID,94.599,VALID,0,VALID,19.1792,VALID,325,VALID,0,
2013-03-01, 03:25:04,VALID,916.375,VALID,0,VALID,94.538,VALID,0,VALID,19.1987,VALID,325,VALID,0,
2013-03-01, 03:26:04,VALID,916.384,VALID,0,VALID,94.4846,VALID,0,VALID,19.2168,VALID,325,VALID,0,
2013-03-01, 03:27:04,VALID,916.341,VALID,0,VALID,94.3779,VALID,0,VALID,19.2168,VALID,325,VALID,0,
2013-03-01, 03:28:04,VALID,916.299,VALID,0,VALID,94.2712,VALID,0,VALID,19.2168,VALID,2,VALID,0,
2013-03-01, 03:29:04,VALID,916.292,VALID,0,VALID,94.3931,VALID,0,VALID,19.1973,VALID,3,VALID,0,
2013-03-01, 03:30:04,VALID,916.329,VALID,0,VALID,94.3703,VALID,0,VALID,19.1973,VALID,346,VALID,0,
2013-03-01, 03:31:04,VALID,916.361,VALID,0,VALID,94.355,VALID,0,VALID,19.1973,VALID,322,VALID,0,
2013-03-01, 03:32:04,VALID,916.315,VALID,0,VALID,94.3703,VALID,0,VALID,19.1763,VALID,344,VALID,0,
2013-03-01, 03:33:04,VALID,916.33,VALID,0,VALID,94.4084,VALID,0,VALID,19.1763,VALID,343,VALID,0,
2013-03-01, 03:34:04,VALID,916.351,VALID,0,VALID,94.4465,VALID,0,VALID,19.1973,VALID,343,VALID,0,
2013-03-01, 03:35:04,VALID,916.336,VALID,0,VALID,94.5304,VALID,0,VALID,19.1973,VALID,341,VALID,0,
2013-03-01, 03:36:04,VALID,916.319,VALID,0,VALID,94.5227,VALID,0,VALID,19.1763,VALID,326,VALID,0,
2013-03-01, 03:37:04,VALID,916.328,VALID,0,VALID,94.4236,VALID,0,VALID,19.1778,VALID,342,VALID,0,
2013-03-01, 03:38:04,VALID,916.348,VALID,0,VALID,94.416,VALID,0,VALID,19.1973,VALID,338,VALID,0,
2013-03-01, 03:39:04,VALID,916.362,VALID,0,VALID,94.3855,VALID,0,VALID,19.1973,VALID,335,VALID,0,
2013-03-01, 03:40:04,VALID,916.336,VALID,0,VALID,94.5304,VALID,0,VALID,19.1973,VALID,343,VALID,0,
2013-03-01, 03:41:04,VALID,916.336,VALID,0,VALID,94.5761,VALID,0,VALID,19.2182,VALID,16,VALID,0,
2013-03-01, 03:42:04,VALID,916.318,VALID,0,VALID,94.5761,VALID,0,VALID,19.1987,VALID,335,VALID,0,
2013-03-01, 03:43:04,VALID,916.288,VALID,0,VALID,94.4389,VALID,0,VALID,19.1987,VALID,323,VALID,0,
2013-03-01, 03:44:04,VALID,916.276,VALID,0,VALID,94.2788,VALID,0,VALID,19.2168,VALID,323,VALID,0,
2013-03-01, 03:45:04,VALID,916.218,VALID,0,VALID,94.2559,VALID,0,VALID,19.2377,VALID,328,VALID,0,
2013-03-01, 03:46:04,VALID,916.164,VALID,0,VALID,94.0882,VALID,0,VALID,19.2363,VALID,342,VALID,0,
2013-03-01, 03:47:04,VALID,916.186,VALID,0,VALID,93.9281,VALID,0,VALID,19.2377,VALID,13,VALID,0,
2013-03-01, 03:48:04,VALID,916.174,VALID,0,VALID,93.768,VALID,0,VALID,19.2753,VALID,9,VALID,0,
2013-03-01, 03:49:04,VALID,916.186,VALID,0,VALID,93.6765,VALID,0,VALID,19.2962,VALID,3,VALID,0,
2013-03-01, 03:50:04,VALID,916.201,VALID,0,VALID,93.5698,VALID,0,VALID,19.2962,VALID,359,VALID,0,
2013-03-01, 03:51:04,VALID,916.225,VALID,0,VALID,93.4021,VALID,0,VALID,19.2753,VALID,340,VALID,0,
2013-03-01, 03:52:04,VALID,916.221,VALID,0,VALID,93.3259,VALID,0,VALID,19.3157,VALID,356,VALID,0,
2013-03-01, 03:53:04,VALID,916.234,VALID,0,VALID,93.3259,VALID,0,VALID,19.3352,VALID,356,VALID,0,
2013-03-01, 03:54:04,VALID,916.229,VALID,0,VALID,93.3411,VALID,0,VALID,19.3352,VALID,356,VALID,0,
2013-03-01, 03:55:04,VALID,916.244,VALID,0,VALID,93.4402,VALID,0,VALID,19.2948,VALID,356,VALID,0,
2013-03-01, 03:56:04,VALID,916.269,VALID,0,VALID,93.5393,VALID,0,VALID,19.3157,VALID,349,VALID,0,
2013-03-01, 03:57:04,VALID,916.249,VALID,0,VALID,93.4936,VALID,0,VALID,19.2962,VALID,344,VALID,0,
2013-03-01, 03:58:04,VALID,916.263,VALID,0,VALID,93.4555,VALID,0,VALID,19.2948,VALID,344,VALID,0,
2013-03-01, 03:59:04,VALID,916.218,VALID,0,VALID,93.4555,VALID,0,VALID,19.3157,VALID,344,VALID,0,
2013-03-01, 04:00:04,VALID,916.229,VALID,0,VALID,93.5012,VALID,0,VALID,19.2948,VALID,344,VALID,0,